[[{"header":{"parameterUnit":"m.s-1","parameterCategory":1,"la1":30.2991,"la2":30.254,"lo1":-89.0895,"lo2":-89.0444,"dy":0.0017,"dx":0.0017,"nx":28,"ny":28,"refTime":"2025-07-08T03:00:00:Z","depth":0,"parameterNumber":2,"parameterNumberName":"U-component_of_WINDS"},"data":[0,0,0,0,0,0,0,0,0,0,0,0,0,0,0,0,0,0,0,0,0,0,0,0,0,0,0,0,0,0,0,0,0,0,0,0,0,0,0,0,0,0,0,0,0,0,0,0,0,0,0,0,0,0,0,0,0,0,2.9697,2.97,0,2.9981,2.9985,2.9988,2.9998,2.9994,2.9991,2.9988,3.0293,3.0304,3.0315,0,0,0,0,0,0,0,0,0,0,0,0,0,2.9178,2.9188,2.9697,2.97,2.9704,2.9981,2.9985,2.9989,2.9999,2.9994,2.999,2.9986,3.0289,3.0302,3.0316,0,0,0,0,0,0,0,0,0,0,0,0,0,2.9427,2.9191,2.9696,2.9742,2.9749,2.998,2.9985,2.999,2.9999,2.9994,2.9989,2.9984,3.0284,3.0301,3.0318,3.0527,0,0,3.037,3.0377,0,0,0,0,0,0,0,0,2.9413,2.9446,2.9732,2.9739,2.9747,2.9948,2.9914,3.017,3.0001,2.9905,2.9988,2.9982,3.0183,3.0208,3.0273,3.0541,3.0554,3.0371,3.0382,3.0389,3.0394,0,0,0,0,0,0,0,2.9396,2.9434,2.981,2.9736,2.9745,2.9753,2.9783,2.9962,3.007,2.9913,2.9914,2.9947,3.0187,3.0257,3.0281,3.0559,3.0371,3.0386,3.0396,3.0403,3.1019,3.1025,0,0,0,0,0,0,2.9368,2.942,2.9801,2.9818,2.9563,2.9767,2.98,2.9889,3.0068,3.009,2.9951,2.9946,3.0231,3.0261,3.0291,3.0552,3.0389,3.0405,3.0415,3.1013,3.1021,3.1027,0,0,0,0,0,0,2.9356,2.9401,2.9789,2.962,2.9669,2.9781,2.9882,2.9898,2.9968,3.0097,3.0118,3.0002,3.0228,3.0268,3.0469,3.0562,3.0412,3.0428,3.1006,3.1015,3.1024,3.1071,0,0,0,0,0,0,2.9341,2.9397,2.9474,2.9621,2.9678,2.9957,2.9887,2.9907,2.9996,2.9992,3.015,3.0172,3.0227,3.0443,3.0486,3.0583,3.0441,3.0998,3.101,3.1021,3.1062,3.1081,3.1097,0,0,0,0,0,2.9323,2.9477,2.9477,2.9523,2.9775,2.9962,2.9995,3.0051,3.0003,3.0084,3.0168,3.0167,3.0545,3.0464,3.0512,3.0616,3.0992,3.1007,3.102,3.1054,3.1077,3.1097,0,0,0,0,0,0,2.9342,2.9497,2.9499,2.9705,2.982,2.9963,3.0066,3.0074,3.0208,3.02,3.0268,3.0304,3.0505,3.0581,3.0487,3.0831,3.0764,3.0788,3.0773,3.0797,3.0814,3.0793,3.0455,0,0,0,0,0,2.9369,2.9503,2.9633,2.9803,2.986,2.9953,3.0037,3.007,3.0194,3.0243,3.0342,3.0466,3.0613,3.0709,3.0851,3.1073,3.1111,3.1169,3.1187,3.12,3.1221,3.135,3.1379,3.1073,3.1073,3.1072,0,0,2.9429,2.953,2.9611,2.9809,2.9902,3.0045,2.9994,3.0146,3.0254,3.0268,3.0463,3.0541,3.0684,3.0898,3.0997,3.0967,3.1314,3.1218,3.1228,3.1242,3.1367,3.1396,3.1422,3.1082,3.108,3.1079,0,0,2.961,2.9698,2.985,2.9944,3.0085,3.0146,3.0183,3.0327,3.0377,3.0574,3.0589,3.0721,3.0972,3.1075,3.116,3.1386,3.1392,3.1431,3.1524,3.1648,3.1673,3.1694,3.1779,3.1808,3.145,3.1451,3.1451,0,2.9667,2.9877,2.9929,3.0081,3.0171,3.0187,3.0346,3.0436,3.0618,3.0682,3.0645,3.0963,3.1061,3.1301,3.1356,3.1423,3.1473,3.1413,3.1664,3.1686,3.1708,3.1789,3.182,3.1455,3.1454,3.1454,3.1453,0,2.9943,3.0089,3.0196,3.0367,3.0469,3.0624,3.0706,3.0804,3.083,3.0897,3.1101,3.1219,3.1387,3.1447,3.1474,3.1694,3.1671,3.1648,3.1583,3.174,3.1818,3.1849,3.146,3.1459,3.1458,3.1457,0,0,3.0143,3.0342,3.0381,3.0461,3.0619,3.0736,3.0895,3.1056,3.1141,3.1267,3.1405,3.1619,3.16,3.1697,3.1737,3.1846,3.2023,3.1811,3.1816,3.1849,3.2277,3.2295,3.233,3.2027,3.2033,3.2038,3.2266,0,3.0344,3.062,3.0674,3.0917,3.1056,3.1076,3.1215,3.133,3.1399,3.1531,3.1609,3.1761,3.1722,3.1781,3.1889,3.1978,3.211,3.1962,3.2163,3.2169,3.2128,3.237,3.2388,3.2597,3.2297,3.2302,3.2306,0,3.0614,3.0743,3.0999,3.1142,3.1203,3.1326,3.1481,3.1605,3.1739,3.1782,3.1892,3.1921,3.2093,3.2019,3.2261,3.2159,3.2245,3.2302,3.2311,3.2334,3.2248,3.2402,3.2665,3.2698,3.2354,3.235,3.2346,0,3.0739,3.0978,3.1162,3.123,3.14,3.1488,3.1564,3.1692,3.1787,3.1925,3.1988,3.2145,3.2232,3.2356,3.2429,3.2367,3.2668,3.2598,3.2713,3.2712,3.2777,3.2772,3.306,3.2828,3.2827,3.2827,3.2826,0,3.0959,3.1115,3.1221,3.1335,3.1514,3.1577,3.1754,3.183,3.1945,3.2079,3.2107,3.2233,3.2321,3.2462,3.2521,3.2715,3.2754,3.2798,3.2812,3.2797,3.2791,3.2855,3.2844,3.2835,3.2833,3.2832,3.283,0,3.1128,3.1204,3.1408,3.1552,3.1593,3.1719,3.1846,3.1961,3.203,3.2199,3.2243,3.2354,3.2522,3.2606,3.2816,3.2856,3.3077,3.3081,3.303,3.3036,3.3148,3.3138,3.3489,3.3541,3.3271,3.3273,3.3276,0,3.1264,3.1385,3.1542,3.1632,3.1709,3.1853,3.195,3.2019,3.212,3.2284,3.2381,3.2549,3.2687,3.2955,3.3058,3.322,3.323,3.3342,3.3255,3.3237,3.3237,3.3229,3.3244,3.3359,3.3361,3.3363,3.3365,0,3.15,3.1532,3.1667,3.1819,3.1932,3.2055,3.2177,3.2251,3.2341,3.2454,3.2623,3.273,3.2944,3.3113,3.3282,3.3368,3.3385,3.3391,3.3427,3.3414,3.3381,3.3404,3.3076,3.3383,3.3382,3.338,3.3379,3.3378,3.166,3.1769,3.1898,3.205,3.2148,3.2262,3.2378,3.2461,3.2602,3.2778,3.2812,3.2994,3.3131,3.336,3.3451,3.3598,3.3575,3.3625,3.3639,3.3651,3.3658,3.3355,3.3629,3.3629,3.3628,3.3628,3.3628,0,3.19,3.1983,3.2122,3.229,3.2412,3.2411,3.2548,3.2651,3.2808,3.2932,3.3067,3.3265,3.343,3.3546,3.3715,3.3811,3.3824,3.3854,3.3849,3.3869,3.3668,3.3621,3.3841,3.3841,3.3841,3.3841,3.3841,3.3841,3.2038,3.2225,3.2274,3.2513,3.2597,3.2771,3.285,3.2957,3.3057,3.3275,3.341,3.3483,3.3607,3.3786,3.3939,3.397,3.4033,3.4064,3.4095,3.3905,3.3883,3.3861,3.3818,3.4076,3.4076,3.4285,3.4287,3.4288]},{"header":{"parameterUnit":"m.s-1","parameterCategory":1,"la1":30.2991,"la2":30.254,"lo1":-89.0895,"lo2":-89.0444,"dy":0.0017,"dx":0.0017,"nx":28,"ny":28,"refTime":"2025-07-08T03:00:00:Z","depth":0,"parameterNumber":3,"parameterNumberName":"V-component_of_WINDS"},"data":[0,0,0,0,0,0,0,0,0,0,0,0,0,0,0,0,0,0,0,0,0,0,0,0,0,0,0,0,0,0,0,0,0,0,0,0,0,0,0,0,0,0,0,0,0,0,0,0,0,0,0,0,0,0,0,0,0,0,0.401,0.401,0,0.4011,0.4011,0.4011,0.395,0.3949,0.3947,0.3946,0.3953,0.3954,0.3956,0,0,0,0,0,0,0,0,0,0,0,0,0,0.3963,0.3964,0.401,0.401,0.401,0.4011,0.4011,0.4011,0.3951,0.3949,0.3947,0.3945,0.3952,0.3954,0.3956,0,0,0,0,0,0,0,0,0,0,0,0,0,0.3976,0.3964,0.401,0.398,0.3977,0.4011,0.4011,0.4011,0.3951,0.3949,0.3946,0.3944,0.3951,0.3954,0.3956,0.4021,0,0,0.3964,0.3965,0,0,0,0,0,0,0,0,0.3975,0.3978,0.3985,0.3982,0.3979,0.3978,0.3997,0.4015,0.3952,0.3961,0.3946,0.3943,0.3963,0.3965,0.397,0.4021,0.4021,0.3964,0.3966,0.3967,0.3968,0,0,0,0,0,0,0,0.3974,0.3977,0.4011,0.3985,0.3982,0.3969,0.3968,0.4,0.3976,0.396,0.3956,0.3957,0.3962,0.3968,0.397,0.4021,0.3964,0.3966,0.3968,0.3969,0.4128,0.4131,0,0,0,0,0,0,0.3977,0.3977,0.4011,0.4011,0.3971,0.3972,0.397,0.3981,0.3976,0.3972,0.3959,0.3954,0.3965,0.3967,0.397,0.4048,0.3967,0.3969,0.3971,0.4126,0.4129,0.4132,0,0,0,0,0,0,0.3976,0.398,0.4011,0.3993,0.3995,0.3975,0.3987,0.3982,0.3989,0.3974,0.397,0.3969,0.3963,0.3967,0.4009,0.4047,0.397,0.3973,0.4122,0.4127,0.413,0.4202,0,0,0,0,0,0,0.3975,0.398,0.4003,0.3993,0.3997,0.4048,0.3989,0.3984,0.3993,0.3986,0.3983,0.3981,0.3962,0.4005,0.4011,0.4049,0.3975,0.4119,0.4124,0.4129,0.4196,0.4208,0.4218,0,0,0,0,0,0.3973,0.4024,0.4004,0.4009,0.4024,0.405,0.4052,0.4027,0.3996,0.402,0.4011,0.3981,0.4041,0.401,0.4016,0.4056,0.4117,0.4123,0.4129,0.4191,0.4206,0.4218,0,0,0,0,0,0,0.404,0.4022,0.4,0.4048,0.4051,0.4039,0.4069,0.4043,0.4056,0.4049,0.402,0.402,0.4068,0.4065,0.4031,0.4119,0.4074,0.4082,0.4119,0.4133,0.4143,0.4144,0.3977,0,0,0,0,0,0.4059,0.408,0.4064,0.4108,0.411,0.4089,0.41,0.408,0.4083,0.4084,0.4078,0.4083,0.4103,0.4117,0.4135,0.4195,0.4195,0.4225,0.4236,0.4245,0.4253,0.4288,0.4302,0.4152,0.4152,0.4152,0,0,0.4102,0.4094,0.4109,0.4121,0.4121,0.4145,0.4091,0.4118,0.4137,0.4089,0.4128,0.4124,0.4128,0.418,0.4203,0.418,0.4294,0.4253,0.426,0.4263,0.4295,0.431,0.4322,0.4156,0.4155,0.4155,0,0,0.4191,0.4186,0.4224,0.4224,0.4224,0.421,0.4219,0.4212,0.4207,0.4246,0.4211,0.4234,0.4269,0.4274,0.4281,0.4374,0.4348,0.4381,0.4439,0.4473,0.4485,0.4496,0.4532,0.4545,0.4388,0.4388,0.4388,0,0.4244,0.4277,0.4247,0.4277,0.4285,0.4241,0.428,0.4283,0.429,0.4297,0.4271,0.4315,0.4314,0.4369,0.4391,0.4398,0.441,0.4382,0.4485,0.4496,0.4505,0.4539,0.4553,0.4393,0.4392,0.4392,0.4391,0,0.4343,0.4367,0.4398,0.4404,0.4415,0.445,0.4427,0.4443,0.4423,0.4413,0.4455,0.4452,0.447,0.4481,0.4462,0.4534,0.452,0.449,0.4444,0.4524,0.4556,0.4569,0.4398,0.4397,0.4396,0.4395,0,0,0.4475,0.4464,0.4476,0.448,0.4477,0.4496,0.453,0.4546,0.4561,0.4567,0.4597,0.4628,0.4601,0.4609,0.4591,0.4621,0.4699,0.4587,0.4587,0.4611,0.4781,0.4806,0.4821,0.468,0.4683,0.4685,0.4782,0,0.4564,0.4619,0.4594,0.4654,0.4677,0.4636,0.4666,0.467,0.4661,0.4682,0.4673,0.4697,0.4657,0.4663,0.469,0.4683,0.4733,0.4676,0.4712,0.4713,0.4715,0.4838,0.4863,0.4955,0.4794,0.4796,0.4798,0,0.4674,0.4684,0.4746,0.4741,0.475,0.4777,0.4791,0.481,0.4814,0.4806,0.4816,0.4792,0.4828,0.4781,0.4832,0.4794,0.4807,0.4807,0.481,0.4814,0.4762,0.4849,0.4983,0.4999,0.4816,0.4815,0.4814,0,0.4768,0.4797,0.4838,0.4842,0.4836,0.4857,0.4856,0.4857,0.4869,0.4882,0.489,0.4907,0.4918,0.4933,0.4916,0.4882,0.4972,0.4922,0.4969,0.497,0.4992,0.4991,0.5134,0.4996,0.4995,0.4995,0.4995,0,0.4871,0.4911,0.488,0.4906,0.4951,0.4922,0.4968,0.4963,0.4965,0.4991,0.4957,0.4983,0.4956,0.4981,0.4968,0.5014,0.5019,0.5016,0.5013,0.502,0.5021,0.5031,0.5025,0.4999,0.4998,0.4997,0.4997,0,0.4983,0.4964,0.5006,0.4998,0.4997,0.503,0.5024,0.5049,0.5038,0.5072,0.5079,0.5063,0.509,0.5074,0.5101,0.5093,0.5155,0.5141,0.5153,0.5151,0.52,0.5197,0.5356,0.5377,0.5223,0.5224,0.5226,0,0.5051,0.5081,0.5076,0.509,0.5091,0.5114,0.5126,0.51,0.5115,0.5123,0.5148,0.5172,0.519,0.5236,0.5229,0.5251,0.5239,0.5294,0.5243,0.5251,0.5244,0.5244,0.5248,0.5305,0.5307,0.5308,0.5309,0,0.5176,0.5165,0.5182,0.5197,0.5212,0.5223,0.5232,0.5246,0.522,0.5239,0.5265,0.5279,0.5308,0.5334,0.5353,0.5355,0.533,0.5325,0.5338,0.5348,0.5355,0.5355,0.5184,0.5322,0.5321,0.532,0.5319,0.5319,0.527,0.5296,0.5296,0.5318,0.5321,0.533,0.5354,0.5346,0.5367,0.5388,0.5371,0.5404,0.5411,0.5433,0.5439,0.5466,0.5445,0.5463,0.5468,0.5473,0.5481,0.5348,0.547,0.5469,0.5469,0.5468,0.5468,0,0.5395,0.5393,0.5413,0.5426,0.5444,0.5415,0.5424,0.5442,0.547,0.5477,0.5495,0.5528,0.5553,0.5548,0.5572,0.5595,0.5585,0.5603,0.5602,0.5604,0.5497,0.5486,0.5611,0.5611,0.5611,0.5611,0.5611,0.5611,0.5462,0.5505,0.5495,0.554,0.5539,0.5569,0.5577,0.5587,0.5592,0.563,0.565,0.5645,0.5649,0.5673,0.5696,0.5694,0.5706,0.573,0.5724,0.5625,0.5611,0.5598,0.5587,0.5732,0.5732,0.5829,0.583,0.583]}]]